THOR 6

Last updated on Fri Jul 11 2025 00:02:43 GMT+0000 (Coordinated Universal Time)

1 36033U 09058B 25191.20628013 .00000004 00000+0 00000+0 0 9999 2 36033 0.0499 226.6712 0002489 268.4265 226.6900 1.00272305 57570
UTC large
Height (km)
Speed (km/s)
/
Latitude / Longitude
Inclination (degrees)
Orbital Period (minutes)
Azimuth
Elevation
Range (km)
Doppler Factor

Next 0 passes for location: London (51.5072 / 0.1276)

Sorry there are no passes over London.